CPA170 YPPH-VHHH

Flight info

Callsign CPA170
Flight time N/A
Altitude 35000
Route AVNEX Y15 ESDEG/N0486F340 Q587 OPOSA/N0491F360 Q587 METUM R592 BLI M522 ELANG/N0487F370 M522 VINIK M754 AKOTA/N0483F380 A583 SABNO V542 BETTY
Aircraft B77W/H-SDE1E2E3FGHIJ2J3J4J5M1RWXY/LB1D1

Departure

Time N/A
Airport Perth International Airport (YPPH)

Arrival

Time 2026-05-08 06:46
Airport Hong Kong International Airport (VHHH)
Time Latitude Longitude Altitude Speed Heading
2026-05-08 05:55 18.36201 116.18546 37919 ft 461 kts 334°
2026-05-08 05:56 18.39052 116.16994 37914 ft 461 kts 334°
2026-05-08 05:56 18.44742 116.13895 37916 ft 460 kts 334°
2026-05-08 05:57 18.50433 116.10794 37924 ft 460 kts 334°
2026-05-08 05:57 18.56106 116.07700 37922 ft 459 kts 334°
2026-05-08 05:58 18.61777 116.04605 37922 ft 459 kts 334°
2026-05-08 05:58 18.67415 116.01525 37930 ft 459 kts 334°
2026-05-08 05:59 18.73094 115.98420 37926 ft 459 kts 334°
2026-05-08 05:59 18.78759 115.95321 37926 ft 459 kts 334°
2026-05-08 06:00 18.84436 115.92212 37929 ft 459 kts 334°
2026-05-08 06:00 18.90101 115.89108 37933 ft 459 kts 334°
2026-05-08 06:01 18.95695 115.85835 37925 ft 461 kts 325°
2026-05-08 06:01 19.00334 115.81223 37935 ft 464 kts 311°
2026-05-08 06:02 19.03909 115.75517 37935 ft 467 kts 303°
2026-05-08 06:02 19.07256 115.69617 37926 ft 467 kts 303°
2026-05-08 06:03 19.10628 115.63748 37931 ft 467 kts 304°
2026-05-08 06:03 19.14039 115.57884 37935 ft 467 kts 304°
2026-05-08 06:04 19.17446 115.52041 37930 ft 466 kts 304°
2026-05-08 06:04 19.20819 115.46247 37934 ft 465 kts 304°
2026-05-08 06:05 19.24217 115.40401 37936 ft 465 kts 304°
2026-05-08 06:05 19.27598 115.34577 37943 ft 464 kts 303°
2026-05-08 06:06 19.30974 115.28759 37934 ft 462 kts 303°
2026-05-08 06:06 19.34336 115.22963 37929 ft 460 kts 303°
2026-05-08 06:07 19.37659 115.17230 37936 ft 459 kts 303°
2026-05-08 06:07 19.41011 115.11440 37939 ft 458 kts 303°
2026-05-08 06:08 19.44319 115.05720 37935 ft 458 kts 303°
2026-05-08 06:08 19.47644 114.99965 37941 ft 458 kts 303°
2026-05-08 06:09 19.50969 114.94204 37938 ft 458 kts 303°
2026-05-08 06:09 19.54291 114.88442 37938 ft 458 kts 303°
2026-05-08 06:10 19.57614 114.82673 37940 ft 458 kts 303°
2026-05-08 06:10 19.60913 114.76939 37943 ft 458 kts 303°
2026-05-08 06:11 19.64229 114.71172 37938 ft 458 kts 303°
2026-05-08 06:11 19.66137 114.68496 37931 ft 453 kts 317°
2026-05-08 06:11 19.68656 114.66517 37950 ft 452 kts 331°
2026-05-08 06:12 19.74625 114.64505 37949 ft 453 kts 353°
2026-05-08 06:12 19.80894 114.64059 37956 ft 455 kts 354°
2026-05-08 06:13 19.87227 114.63614 37952 ft 457 kts 354°
2026-05-08 06:13 19.93595 114.63108 37957 ft 459 kts 353°
2026-05-08 06:14 19.99974 114.62571 37959 ft 460 kts 353°
2026-05-08 06:14 20.06360 114.62029 37944 ft 459 kts 353°
2026-05-08 06:15 20.12685 114.61492 37948 ft 458 kts 353°
2026-05-08 06:15 20.19043 114.60954 37948 ft 457 kts 353°
2026-05-08 06:16 20.25378 114.60417 37949 ft 456 kts 353°
2026-05-08 06:16 20.31667 114.59884 37905 ft 449 kts 353°
2026-05-08 06:16 20.34787 114.59620 37342 ft 449 kts 353°
2026-05-08 06:17 20.41002 114.59091 36040 ft 448 kts 353°
2026-05-08 06:17 20.44111 114.58826 35291 ft 451 kts 353°
2026-05-08 06:17 20.47249 114.58559 34485 ft 455 kts 354°
2026-05-08 06:18 20.50374 114.58293 33892 ft 454 kts 354°
2026-05-08 06:18 20.53535 114.58025 33219 ft 453 kts 354°
2026-05-08 06:18 20.56673 114.57758 32622 ft 451 kts 354°
2026-05-08 06:18 20.59801 114.57492 32054 ft 449 kts 354°
2026-05-08 06:19 20.62911 114.57223 31498 ft 448 kts 354°
2026-05-08 06:19 20.66018 114.56949 30937 ft 446 kts 354°
2026-05-08 06:19 20.69112 114.56675 30362 ft 446 kts 354°
2026-05-08 06:19 20.72207 114.56402 29759 ft 446 kts 354°
2026-05-08 06:20 20.75298 114.56129 29126 ft 445 kts 354°
2026-05-08 06:20 20.78348 114.55860 28530 ft 444 kts 354°
2026-05-08 06:20 20.81422 114.55589 27953 ft 442 kts 354°
2026-05-08 06:20 20.84485 114.55329 27383 ft 440 kts 355°
2026-05-08 06:21 20.87546 114.55263 26808 ft 439 kts 359°
2026-05-08 06:21 20.90601 114.55293 26258 ft 438 kts 359°
2026-05-08 06:21 20.93650 114.55340 25692 ft 437 kts 359°
2026-05-08 06:21 20.96684 114.55388 25117 ft 436 kts 359°
2026-05-08 06:22 20.99731 114.55430 24560 ft 435 kts 359°
2026-05-08 06:22 21.02718 114.55466 24015 ft 434 kts 359°
2026-05-08 06:22 21.05738 114.55498 23442 ft 434 kts 359°
2026-05-08 06:22 21.08750 114.55527 22797 ft 432 kts 359°
2026-05-08 06:23 21.11745 114.55555 22227 ft 429 kts 359°
2026-05-08 06:23 21.14727 114.55583 21685 ft 426 kts 359°
2026-05-08 06:23 21.17684 114.55611 21125 ft 423 kts 359°
2026-05-08 06:23 21.20623 114.55638 20590 ft 421 kts 359°
2026-05-08 06:24 21.23541 114.55665 20063 ft 418 kts 359°
2026-05-08 06:24 21.26450 114.55692 19511 ft 417 kts 359°
2026-05-08 06:24 21.29340 114.55719 18975 ft 415 kts 359°
2026-05-08 06:24 21.32225 114.55747 18438 ft 414 kts 359°
2026-05-08 06:25 21.35102 114.55774 17850 ft 412 kts 359°
2026-05-08 06:25 21.37954 114.55800 17275 ft 410 kts 359°
2026-05-08 06:25 21.40762 114.55827 16750 ft 407 kts 359°
2026-05-08 06:25 21.43621 114.55853 16206 ft 404 kts 359°
2026-05-08 06:26 21.46426 114.55880 15678 ft 402 kts 359°
2026-05-08 06:26 21.49200 114.55777 15145 ft 396 kts 349°
2026-05-08 06:26 21.51791 114.54989 14653 ft 390 kts 338°
2026-05-08 06:26 21.54331 114.53971 14126 ft 389 kts 338°
2026-05-08 06:27 21.56879 114.53027 13582 ft 388 kts 340°
2026-05-08 06:27 21.59439 114.52129 13170 ft 381 kts 340°
2026-05-08 06:27 21.61916 114.51294 12955 ft 370 kts 342°
2026-05-08 06:27 21.64385 114.50679 12736 ft 360 kts 347°
2026-05-08 06:28 21.66781 114.50212 12313 ft 341 kts 348°
2026-05-08 06:28 21.69088 114.49793 12017 ft 334 kts 348°
2026-05-08 06:28 21.71382 114.49368 11745 ft 335 kts 348°
2026-05-08 06:28 21.73688 114.48929 11475 ft 338 kts 348°
2026-05-08 06:29 21.76036 114.48469 11203 ft 344 kts 348°
2026-05-08 06:29 21.78385 114.48003 10905 ft 341 kts 348°
2026-05-08 06:29 21.80697 114.47539 10619 ft 335 kts 348°
2026-05-08 06:29 21.82940 114.47086 10346 ft 330 kts 348°
2026-05-08 06:30 21.85177 114.46633 10086 ft 324 kts 348°
2026-05-08 06:30 21.87309 114.46201 9899 ft 298 kts 348°
2026-05-08 06:30 21.89307 114.45795 9599 ft 285 kts 348°
2026-05-08 06:30 21.91219 114.45406 9363 ft 277 kts 348°
2026-05-08 06:31 21.93117 114.45018 9138 ft 278 kts 348°
2026-05-08 06:31 21.95025 114.44628 8905 ft 280 kts 348°
2026-05-08 06:31 21.96945 114.44235 8691 ft 281 kts 348°
2026-05-08 06:31 21.98868 114.43842 8449 ft 282 kts 348°
2026-05-08 06:32 22.00814 114.43445 8222 ft 285 kts 348°
2026-05-08 06:32 22.02758 114.43048 7979 ft 282 kts 348°
2026-05-08 06:32 22.04651 114.42662 7735 ft 278 kts 348°
2026-05-08 06:32 22.06526 114.42279 7498 ft 273 kts 348°
2026-05-08 06:33 22.08390 114.41898 7273 ft 269 kts 348°
2026-05-08 06:33 22.10217 114.41524 7055 ft 266 kts 348°
2026-05-08 06:33 22.12031 114.41153 6840 ft 265 kts 348°
2026-05-08 06:33 22.13837 114.40784 6633 ft 263 kts 348°
2026-05-08 06:34 22.15637 114.40416 6406 ft 262 kts 348°
2026-05-08 06:34 22.17432 114.40050 6188 ft 262 kts 348°
2026-05-08 06:34 22.19206 114.39672 6008 ft 259 kts 345°
2026-05-08 06:34 22.20928 114.39102 5934 ft 259 kts 340°
2026-05-08 06:35 22.22645 114.38445 5861 ft 265 kts 340°
2026-05-08 06:35 22.24387 114.37774 5781 ft 266 kts 340°
2026-05-08 06:35 22.26123 114.37112 5696 ft 264 kts 340°
2026-05-08 06:35 22.27851 114.36462 5619 ft 262 kts 340°
2026-05-08 06:36 22.29571 114.35820 5538 ft 261 kts 340°
2026-05-08 06:36 22.31261 114.35193 5469 ft 260 kts 340°
2026-05-08 06:36 22.32972 114.34561 5412 ft 259 kts 340°
2026-05-08 06:36 22.34655 114.33939 5329 ft 251 kts 340°
2026-05-08 06:37 22.36273 114.33341 5231 ft 241 kts 341°
2026-05-08 06:37 22.37827 114.32769 5172 ft 229 kts 340°
2026-05-08 06:37 22.39258 114.32146 5072 ft 212 kts 323°
2026-05-08 06:37 22.40151 114.30991 5093 ft 201 kts 296°
2026-05-08 06:38 22.40593 114.29549 5035 ft 206 kts 283°
2026-05-08 06:38 22.40867 114.28048 4955 ft 196 kts 281°
2026-05-08 06:38 22.41093 114.26624 4873 ft 190 kts 273°
2026-05-08 06:38 22.40885 114.25223 4856 ft 194 kts 256°
2026-05-08 06:39 22.40510 114.23774 4832 ft 199 kts 255°
2026-05-08 06:39 22.40103 114.22366 4764 ft 199 kts 253°
2026-05-08 06:39 22.39668 114.20960 4696 ft 196 kts 252°
2026-05-08 06:39 22.39227 114.19573 4617 ft 195 kts 252°
2026-05-08 06:40 22.38784 114.18191 4547 ft 195 kts 252°
2026-05-08 06:40 22.38334 114.16793 4303 ft 198 kts 252°
2026-05-08 06:40 22.37883 114.15395 4060 ft 195 kts 252°
2026-05-08 06:40 22.37438 114.14019 3818 ft 193 kts 252°
2026-05-08 06:41 22.36998 114.12653 3571 ft 192 kts 252°
2026-05-08 06:41 22.36558 114.11289 3338 ft 192 kts 252°
2026-05-08 06:41 22.36115 114.09918 3086 ft 193 kts 252°
2026-05-08 06:41 22.35823 114.09013 2936 ft 193 kts 252°
2026-05-08 06:42 22.35231 114.07180 2587 ft 192 kts 252°
2026-05-08 06:42 22.34794 114.05822 2331 ft 190 kts 252°
2026-05-08 06:42 22.34508 114.04934 2170 ft 188 kts 252°
2026-05-08 06:42 22.34086 114.03633 1922 ft 179 kts 252°
2026-05-08 06:43 22.33528 114.01899 1642 ft 187 kts 253°
2026-05-08 06:43 22.33246 114.01024 1473 ft 184 kts 252°
2026-05-08 06:43 22.32712 113.99376 1188 ft 164 kts 253°
2026-05-08 06:43 22.32467 113.98613 1033 ft 154 kts 254°
2026-05-08 06:44 22.32136 113.97586 887 ft 145 kts 253°
2026-05-08 06:44 22.31701 113.96233 666 ft 145 kts 252°
2026-05-08 06:44 22.31479 113.95549 488 ft 145 kts 252°
2026-05-08 06:44 22.31144 113.94540 307 ft 140 kts 252°
2026-05-08 06:45 22.30825 113.93535 147 ft 144 kts 252°
2026-05-08 06:45 22.30495 113.92512 45 ft 141 kts 252°
2026-05-08 06:45 22.30210 113.91622 40 ft 103 kts 251°
2026-05-08 06:45 22.30035 113.91080 40 ft 50 kts 251°
2026-05-08 06:46 22.29995 113.90864 40 ft 22 kts 268°
2026-05-08 06:46 22.30016 113.90709 40 ft 17 kts 294°
2026-05-08 06:46 22.30104 113.90720 40 ft 17 kts 68°
2026-05-08 06:46 22.30151 113.90863 40 ft 26 kts 71°
2026-05-08 06:47 22.30226 113.91096 40 ft 36 kts 71°
2026-05-08 06:47 22.30299 113.91325 40 ft 32 kts 71°
2026-05-08 06:47 22.30371 113.91547 40 ft 31 kts 70°
2026-05-08 06:47 22.30442 113.91764 40 ft 31 kts 70°
2026-05-08 06:48 22.30511 113.91980 40 ft 30 kts 71°
2026-05-08 06:48 22.30578 113.92194 40 ft 30 kts 71°
2026-05-08 06:48 22.30648 113.92406 40 ft 30 kts 70°
2026-05-08 06:48 22.30717 113.92618 40 ft 30 kts 70°
2026-05-08 06:49 22.30786 113.92830 40 ft 30 kts 70°
2026-05-08 06:49 22.30850 113.93028 40 ft 19 kts 70°
2026-05-08 06:49 22.30946 113.93096 40 ft 17 kts 32°
2026-05-08 06:49 22.31036 113.93133 40 ft 14 kts 350°
2026-05-08 06:50 22.31129 113.93102 40 ft 14 kts 342°
2026-05-08 06:50 22.31214 113.93084 40 ft 12 kts 17°
2026-05-08 06:50 22.31261 113.93137 40 ft 8 kts 38°
2026-05-08 06:50 22.31306 113.93141 40 ft 5 kts 347°
2026-05-08 06:51 22.31322 113.93136 40 ft 3 kts 342°
2026-05-08 06:51 22.31347 113.93127 40 ft 4 kts 342°
2026-05-08 06:51 22.31353 113.93125 40 ft 0 kts 342°